Home   Weather   Poitiers   Past weeks

Flag for France Past Weather in Poitiers, Poitou-Charentes, France — Yesterday and Last 2 Weeks

Now
55 °F

Clear.


Feels Like: 55 °F
Forecast: 55 / 80 °F
Wind: 2 mph from South

Location: Poitiers Airport

Current Time: Sep 28, 2016 at 2:13:29 AM

Latest Report: Sep 28, 2016 at 1:30 AM


Visibility: 10 mi

Pressure: 30.39 "Hg

Humidity: 94%

Dew Point: 54 °F

Location of PoitiersLocation

Past Weather in Poitiers — Graph

°F

Poitiers Temperature Yesterday

Maximum temperature yesterday: 75 °F (at 3:00 PM)
Minimum temperature yesterday: 46 °F (at 4:30 AM)
Average temperature yesterday: 60 °F

High & Low Weather Summary for the Past Weeks

 TemperatureHumidityPressure
High91 °F (Sep 13, 4:30 PM)100% (Sep 13, 10:00 PM)30.39 "Hg (Sep 13, 10:00 PM)
Low45 °F (Sep 24, 8:00 AM)31% (Sep 25, 5:00 PM)29.65 "Hg (Sep 13, 7:30 PM)
Average63 °F72%30.08 "Hg
* Reported Sep 13 1:00 AM — Sep 28 1:00 AM, Poitiers, Weather by CustomWeather, © 2016

Note: Actual official high and low records may vary slightly from our data, if they occured in-between our weather recording intervals... More about our weather records

Advertising

Poitiers Weather History for the Previous 24 Hours

Scroll right to see more
 ConditionsComfort  
Time TempWeatherWind HumidityBarometerVisibility
1:00 AM
Wed, Sep 28
55 °FClear.1 mph88%30.39 "Hg10 mi
12:30 AM55 °FClear.2 mph88%30.39 "Hg10 mi
12:00 AM55 °FClear.No wind88%30.39 "Hg10 mi
11:30 PM
Tue, Sep 27
57 °FClear.No wind82%30.36 "Hg10 mi
11:00 PM59 °FClear.2 mph82%30.36 "Hg10 mi
10:30 PM59 °FClear.No wind82%30.36 "Hg10 mi
10:00 PM61 °FClear.No wind77%30.36 "Hg10 mi
9:30 PM63 °FClear.2 mph68%30.36 "Hg10 mi
9:00 PM63 °FClear.No wind68%30.33 "Hg10 mi
8:30 PM64 °FClear.3 mph64%30.33 "Hg10 mi
8:00 PM66 °FClear.2 mph60%30.33 "Hg5 mi
7:30 PM68 °FSunny.3 mph56%30.33 "Hg10 mi
7:00 PM70 °FSunny.6 mph53%30.33 "Hg10 mi
6:30 PM73 °FSunny.8 mph47%30.30 "Hg10 mi
6:00 PM73 °FPassing clouds.7 mph47%30.30 "HgN/A
5:30 PM75 °FPassing clouds.3 mph44%30.30 "HgN/A
5:00 PM73 °FPassing clouds.7 mph44%30.30 "HgN/A
4:30 PM73 °FPartly sunny.3 mph47%30.30 "HgN/A
4:00 PM73 °FPassing clouds.8 mph44%30.30 "HgN/A
3:30 PM73 °FPassing clouds.5 mph44%30.30 "HgN/A
3:00 PM75 °FSunny.3 mph41%30.30 "Hg10 mi
2:30 PM73 °FSunny.3 mph41%30.30 "Hg10 mi
2:00 PM73 °FPassing clouds.6 mph41%30.30 "HgN/A
1:30 PM73 °FPassing clouds.5 mph38%30.30 "HgN/A
1:00 PM72 °FPassing clouds.6 mph38%30.30 "HgN/A
12:30 PM72 °FPassing clouds.3 mph38%30.33 "HgN/A
12:00 PM70 °FPassing clouds.5 mph38%30.30 "HgN/A
11:30 AM68 °FPassing clouds.5 mph49%30.30 "HgN/A
11:00 AM64 °FPassing clouds.5 mph60%30.30 "HgN/A
10:30 AM61 °FSunny.3 mph72%30.30 "Hg10 mi
10:00 AM59 °FSunny.3 mph72%30.30 "Hg10 mi
9:30 AM55 °FSunny.2 mph82%30.27 "Hg10 mi
9:00 AM50 °FSunny.3 mph94%30.27 "Hg10 mi
8:30 AM50 °FSunny.3 mph88%30.27 "Hg10 mi
8:00 AM48 °FSunny.2 mph94%30.27 "Hg10 mi
7:30 AM48 °FClear.1 mph94%30.27 "Hg10 mi
7:00 AM48 °FClear.No wind87%30.27 "Hg10 mi
6:30 AM46 °FClear.No wind93%30.24 "Hg10 mi
6:00 AM46 °FClear.1 mph87%30.24 "Hg10 mi
5:30 AM46 °FClear.3 mph93%30.24 "Hg10 mi
5:00 AM46 °FClear.No wind87%30.24 "Hg10 mi
4:30 AM46 °FClear.2 mph87%30.24 "Hg10 mi
4:00 AM48 °FClear.2 mph82%30.21 "Hg10 mi
3:30 AM48 °FClear.No wind82%30.21 "HgN/A
3:00 AM50 °FClear.No wind82%30.21 "Hg10 mi
2:30 AM52 °FClear.2 mph77%30.21 "Hg10 mi
2:00 AM50 °FClear.No wind82%30.21 "Hg10 mi
Weather by CustomWeather, © 2016

See weather overviewHow to use our weather pages